Location: Starlight Observatory
(38.4029°N, 85.8936°W)
Time: 08:02:08
(UTC-05:00)

Amateur Radio Satellites - All Passes

Search period start: 07 February 2016 07:32
Search period end: 08 February 2016 07:32
Location: Starlight Observatory, 38.4029°N, 85.8936°W

Satellite Date Start Highest point End Downlink Frequencies (MHz)
Time Altitude Azimuth
DOVE 4 07 Feb 07:32:10 07:34:57 17° 92° (E) 07:37:42 437.250
STRAND 1 07 Feb 07:33:55 07:38:52 51° 260° (W) 07:43:52 437.568
GOMX 1 07 Feb 07:34:16 07:38:28 38° 97° (E) 07:42:26 467.674
CUTE-I 07 Feb 07:35:26 07:40:41 56° 288° (WNW) 07:45:55 437.470
SO-50 07 Feb 07:46:53 07:50:17 18° 316° (NW) 07:53:43 436.795
Cubesat XI-IV 07 Feb 07:48:19 07:53:22 43° 290° (WNW) 07:58:24 437.490
LilacSat-2 07 Feb 07:50:07 07:53:19 26° 289° (WNW) 07:56:29 437.200
BRITE-PL 07 Feb 07:50:09 07:54:59 65° 285° (WNW) 07:59:24 437.365/2234.400
PRISM 07 Feb 07:55:04 07:59:12 88° 257° (WSW) 08:03:25 437.425
CUTE 1.7 + AOD 2 07 Feb 08:21:43 08:25:19 26° 96° (E) 08:28:54 437.475
COMPASS 1 07 Feb 08:25:56 08:28:29 15° 93° (E) 08:31:01 437.405
GONETS M04 07 Feb 08:31:53 08:38:17 24° 81° (E) 08:44:42
SEEDS 07 Feb 08:33:36 08:37:12 26° 96° (E) 08:40:47 437.485
CINEMA 3 07 Feb 08:48:25 08:52:21 41° 99° (E) 08:56:17 145.822/145.860
PHONESAT 2.4 07 Feb 08:50:02 08:51:50 14° 214° (SW) 08:53:38 2401.200-2431.200
O/OREOS (USA 219) 07 Feb 08:56:11 09:00:36 64° 108° (ESE) 09:05:03 437.305
AAUSAT CUBESAT 2 07 Feb 08:56:41 09:00:21 28° 96° (E) 09:03:59 437.432
HO-68 07 Feb 08:57:57 09:05:08 66° 103° (ESE) 09:12:15 435.675
CANX-2 07 Feb 09:05:42 09:10:00 83° 283° (WNW) 09:14:18 2200.000
DOVE 4 07 Feb 09:08:57 09:12:50 34° 289° (WNW) 09:16:34 437.250
GOMX 1 07 Feb 09:13:17 09:16:13 17° 295° (WNW) 09:19:01 467.674
CUBEBUG 2 07 Feb 09:16:17 09:19:56 29° 97° (E) 09:23:39 437.445
UWE-3 07 Feb 09:23:42 09:27:12 26° 96° (E) 09:30:46 435.000/436.395/437.385
UNISAT 6 07 Feb 09:28:36 09:31:46 20° 68° (ENE) 09:34:55 437.425
Oscar 11 07 Feb 09:36:45 09:40:42 33° 97° (E) 09:44:38 145.826/435.025
CUTE 1.7 + AOD 2 07 Feb 09:57:34 10:01:03 25° 291° (WNW) 10:04:32 437.475
Cosmos 2499 07 Feb 09:58:50 10:06:36 40° 86° (E) 10:14:38 435.465 / 435.565
COMPASS 1 07 Feb 10:00:16 10:04:12 39° 287° (WNW) 10:08:08 437.405
SEEDS 07 Feb 10:09:22 10:12:47 24° 291° (WNW) 10:16:13 437.485
ANTELSAT 07 Feb 10:12:24 10:16:42 62° 75° (ENE) 10:20:57 437.575/2403.000
POLYITAN 1 07 Feb 10:17:49 10:20:33 17° 67° (ENE) 10:23:17 437.675
QB50P2 07 Feb 10:18:30 10:21:21 18° 67° (ENE) 10:24:12 145.880/145.840
TIGRISAT 07 Feb 10:20:18 10:24:38 74° 76° (ENE) 10:28:56 435.000
ZACube-1 07 Feb 10:24:13 10:28:25 87° 283° (WNW) 10:32:41 437.345
GONETS M04 07 Feb 10:25:39 10:34:15 67° 280° (W) 10:42:56
CINEMA 3 07 Feb 10:26:50 10:29:09 15° 294° (WNW) 10:31:28 145.822/145.860
AAUSAT CUBESAT 2 07 Feb 10:32:28 10:35:41 22° 291° (WNW) 10:38:54 437.432
DELFI C3 07 Feb 10:34:11 10:38:15 87° 106° (ESE) 10:42:18 145.870
FUNcube-1 07 Feb 10:34:55 10:39:05 69° 284° (WNW) 10:43:19 145.935
BUGSAT 1 07 Feb 10:38:19 10:40:26 14° 65° (ENE) 10:42:32 437.445
O/OREOS (USA 219) 07 Feb 10:38:25 10:40:27 13° 306° (NW) 10:42:30 437.305
HO-68 07 Feb 10:46:46 10:52:13 24° 300° (WNW) 10:57:40 435.675
POPSAT HIP 1 07 Feb 10:47:52 10:51:43 35° 72° (ENE) 10:55:35 437.405
PCSat 07 Feb 10:49:17 10:52:55 18° 105° (ESE) 10:56:34 145.827
CUBEBUG 2 07 Feb 10:53:19 10:56:25 21° 291° (WNW) 10:59:32 437.445
RS-15 07 Feb 10:53:33 11:01:31 23° 100° (E) 11:09:42 29.354- 29.394
NANOSAT C BR1 07 Feb 10:54:21 10:58:19 40° 73° (ENE) 11:02:18 145.865
ESTCUBE 1 07 Feb 10:55:01 10:56:37 12° 91° (E) 10:58:11 437.505/2401.250
DUCHIFAT 1 07 Feb 10:57:07 11:01:06 41° 72° (ENE) 11:05:04 145.980
UWE-3 07 Feb 11:00:13 11:03:34 24° 290° (WNW) 11:06:58 435.000/436.395/437.385
QB50P1 07 Feb 11:00:31 11:04:38 50° 73° (ENE) 11:08:44 145.935-145.965
AO-85 07 Feb 11:04:04 11:09:01 42° 113° (ESE) 11:14:09 145.980
UNISAT 6 07 Feb 11:04:22 11:08:17 32° 263° (W) 11:12:11 437.425
HUMSAT D 07 Feb 11:08:46 11:12:56 86° 103° (ESE) 11:17:08 437.325/437.525
JUGNU 07 Feb 11:09:44 11:11:31 11° 176° (S) 11:13:19 437.505
CUBEBUG 1 07 Feb 11:13:05 11:15:09 13° 91° (E) 11:17:13 437.445
Oscar 11 07 Feb 11:13:27 11:16:36 20° 292° (WNW) 11:19:46 145.826/435.025
UKube-1 07 Feb 11:13:48 11:16:13 15° 93° (E) 11:18:37 .
DX 1 07 Feb 11:19:46 11:23:03 21° 95° (E) 11:26:18 434.975-435.025
AIST 1 07 Feb 11:19:46 11:24:04 55° 94° (E) 11:28:23
50 SAT 07 Feb 11:22:42 11:25:50 24° 96° (E) 11:28:57 437.505
Cosmos 2499 07 Feb 11:51:26 11:59:34 44° 285° (WNW) 12:08:00 435.465 / 435.565
POLYITAN 1 07 Feb 11:52:06 11:56:03 38° 261° (W) 12:00:02 437.675
QB50P2 07 Feb 11:52:57 11:56:53 36° 262° (W) 12:00:49 145.880/145.840
VELOX 1 07 Feb 12:02:59 12:07:22 60° 101° (ESE) 12:11:42 145.980
BUGSAT 1 07 Feb 12:11:18 12:15:24 48° 260° (W) 12:19:29 437.445
AISAT 07 Feb 12:19:05 12:23:31 84° 284° (WNW) 12:27:54 437.250
POPSAT HIP 1 07 Feb 12:24:44 12:27:36 18° 266° (W) 12:30:29 437.405
ESTCUBE 1 07 Feb 12:29:17 12:33:47 60° 286° (WNW) 12:38:15 437.505/2401.250
GONETS M04 07 Feb 12:30:10 12:32:55 12° 301° (WNW) 12:35:40
PCSat 07 Feb 12:30:31 12:35:49 56° 301° (WNW) 12:41:10 145.827
NANOSAT C BR1 07 Feb 12:31:45 12:34:13 15° 267° (W) 12:36:42 145.865
DUCHIFAT 1 07 Feb 12:34:36 12:36:59 15° 267° (W) 12:39:22 145.980
QB50P1 07 Feb 12:38:55 12:40:41 12° 268° (W) 12:42:27 145.935-145.965
JAS-2 07 Feb 12:39:13 12:45:53 34° 66° (ENE) 12:52:09 435.910
SRMSAT 07 Feb 12:40:41 12:41:58 11° 173° (S) 12:43:14 437.500
AO-85 07 Feb 12:44:58 12:49:41 30° 311° (NW) 12:54:30 145.980
CUBEBUG 1 07 Feb 12:47:30 12:51:44 49° 287° (WNW) 12:55:54 437.445
UKube-1 07 Feb 12:48:22 12:52:28 44° 288° (WNW) 12:56:34 .
DX 1 07 Feb 12:55:24 12:59:16 32° 290° (WNW) 13:03:07 434.975-435.025
50 SAT 07 Feb 12:56:52 12:59:44 21° 291° (WNW) 13:02:35 437.505
JUGNU 07 Feb 12:58:20 12:59:37 11° 186° (S) 13:00:53 437.505
AIST 1 07 Feb 13:00:25 13:02:02 12° 290° (WNW) 13:03:39
RS-15 07 Feb 13:01:13 13:12:21 84° 301° (WNW) 13:24:08 29.354- 29.394
SPROUT 07 Feb 13:02:26 13:06:43 84° 102° (ESE) 13:10:58 437.525
Oscar 19 07 Feb 13:16:05 13:21:16 76° 75° (ENE) 13:26:28 437.125/150
YUBILEINY 07 Feb 13:19:44 13:23:26 13° 60° (ENE) 13:27:05 435.215
TISAT 1 07 Feb 13:22:39 13:26:43 48° 100° (E) 13:30:44 437.305
Gurwin Techsat 1B 07 Feb 13:24:36 13:29:19 34° 69° (ENE) 13:34:03 435.225
CUSAT 1 07 Feb 13:29:52 13:35:59 57° 76° (ENE) 13:40:32 437.405
SWISSCUBE 07 Feb 13:38:27 13:40:58 14° 92° (E) 13:43:29 437.505
DANDE 07 Feb 13:38:36 13:45:31 42° 72° (ENE) 13:50:55 436.750
VELOX 1 07 Feb 13:41:28 13:43:18 12° 297° (WNW) 13:45:07 145.980
ITUPSAT 1 07 Feb 14:12:23 14:16:35 29° 97° (E) 14:20:44 437.325
ITAMSAT 1 07 Feb 14:18:44 14:23:48 58° 73° (ENE) 14:28:54 435.822/435.867
BEESAT 07 Feb 14:22:33 14:27:01 37° 98° (E) 14:31:27 436.000
JAS-2 07 Feb 14:23:07 14:30:37 50° 261° (W) 14:37:39 435.910
AO-7 07 Feb 14:27:34 14:34:49 34° 60° (ENE) 14:42:03 29.400- 29.500
SRMSAT 07 Feb 14:28:09 14:30:13 12° 183° (S) 14:32:17 437.500
SO-50 07 Feb 14:37:44 14:42:16 39° 52° (NE) 14:46:38 436.795
Oscar 19 07 Feb 14:59:25 15:01:06 11° 270° (W) 15:02:46 437.125/150
TISAT 1 07 Feb 14:59:56 15:01:56 13° 295° (WNW) 15:03:56 437.305
Gurwin Techsat 1B 07 Feb 15:04:43 15:09:14 28° 264° (W) 15:13:48 435.225
KKS-1 07 Feb 15:11:49 15:14:31 16° 93° (E) 15:17:10 437.445
YUBILEINY 07 Feb 15:13:06 15:21:58 71° 81° (E) 15:30:44 435.215
CUSAT 1 07 Feb 15:14:05 15:17:09 15° 281° (WNW) 15:19:52 437.405
M-CUBED/EXP-1 PRIME 07 Feb 15:14:10 15:17:31 31° 68° (ENE) 15:20:40 437.505
SWISSCUBE 07 Feb 15:14:23 15:19:05 56° 287° (WNW) 15:23:46 437.505
Cosmos 2491 07 Feb 15:15:47 15:23:41 40° 87° (E) 15:31:34 435.465 / 435.565
RS-15 07 Feb 15:17:26 15:26:49 28° 328° (NNW) 15:36:38 29.354- 29.394
DANDE 07 Feb 15:22:10 15:28:04 29° 276° (W) 15:32:52 436.750
AUBIESAT-1 07 Feb 15:26:23 15:29:48 35° 68° (ENE) 15:33:03 437.475
HORYU 2 07 Feb 15:34:53 15:38:30 25° 68° (ENE) 15:42:06 437.375
ITUPSAT 1 07 Feb 15:50:14 15:54:19 28° 292° (WNW) 15:58:22 437.325
ITAMSAT 1 07 Feb 16:00:35 16:03:37 16° 268° (W) 16:06:40 435.822/435.867
BEESAT 07 Feb 16:00:55 16:04:32 22° 294° (WNW) 16:08:10 436.000
SO-50 07 Feb 16:18:48 16:22:30 23° 250° (WSW) 16:26:07 436.795
AO-7 07 Feb 16:19:04 16:27:12 54° 258° (WSW) 16:35:22 29.400- 29.500
MOZHAYETS 4 07 Feb 16:20:36 16:24:52 35° 97° (E) 16:29:07
ISS 07 Feb 16:26:40 16:29:24 25° 133° (SE) 16:32:09 145.825
Cosmos 2504 07 Feb 16:36:03 16:44:31 53° 77° (ENE) 16:52:23 435.465 / 435.565
STARS 07 Feb 16:37:06 16:41:29 78° 103° (ESE) 16:45:50 437.465
KKS-1 07 Feb 16:47:05 16:51:16 43° 288° (WNW) 16:55:26 437.445
M-CUBED/EXP-1 PRIME 07 Feb 16:49:56 16:52:11 15° 259° (W) 16:54:20 437.505
AUBIESAT-1 07 Feb 17:02:41 17:04:28 13° 260° (W) 17:06:11 437.475
BEESAT 3 07 Feb 17:10:35 17:12:20 13° 109° (ESE) 17:14:05 437.485
HORYU 2 07 Feb 17:11:13 17:14:57 27° 264° (W) 17:18:43 437.375
YUBILEINY 07 Feb 17:11:29 17:17:49 23° 280° (W) 17:24:09 435.215
Cosmos 2491 07 Feb 17:12:19 17:20:24 41° 286° (WNW) 17:28:32 435.465 / 435.565
CUTE-I 07 Feb 17:17:03 17:21:19 25° 66° (ENE) 17:25:37 437.470
BRITE-PL 07 Feb 17:22:13 17:25:33 16° 63° (ENE) 17:28:51 437.365/2234.400
Cubesat XI-IV 07 Feb 17:29:25 17:34:05 33° 68° (ENE) 17:38:48 437.490
BEESAT 2 07 Feb 17:29:45 17:31:41 13° 109° (ESE) 17:33:39 435.950
O/OREOS (USA 219) 07 Feb 17:31:28 17:32:05 10° 52° (NE) 17:32:42 437.305
RS-15 07 Feb 17:37:46 17:45:09 18° 4° (N) 17:52:42 29.354- 29.394
MOZHAYETS 4 07 Feb 17:58:18 18:01:48 21° 293° (WNW) 18:05:17
ISS 07 Feb 18:02:51 18:05:47 31° 329° (NNW) 18:08:43 145.825
LilacSat-2 07 Feb 18:29:54 18:33:43 70° 259° (W) 18:37:32 437.200
Cosmos 2504 07 Feb 18:30:10 18:37:23 31° 277° (W) 18:44:13 435.465 / 435.565
CUBESAT XI-V 07 Feb 18:30:43 18:35:27 88° 98° (E) 18:40:08 437.345
DOVE 4 07 Feb 18:35:39 18:39:17 20° 67° (ENE) 18:42:48 437.250
GOMX 1 07 Feb 18:39:37 18:44:43 42° 72° (ENE) 18:49:38 467.674
BEESAT 3 07 Feb 18:45:47 18:49:39 49° 304° (NW) 18:53:32 437.485
CUTE-I 07 Feb 18:56:12 19:01:07 39° 262° (W) 19:06:06 437.470
BRITE-PL 07 Feb 18:57:41 19:03:22 73° 259° (WSW) 19:09:01 437.365/2234.400
AIST 2 07 Feb 19:04:08 19:06:26 15° 109° (ESE) 19:08:45 435.215
BEESAT 2 07 Feb 19:05:16 19:09:10 48° 304° (NW) 19:13:05 435.950
O/OREOS (USA 219) 07 Feb 19:07:31 19:12:07 86° 254° (WSW) 19:16:43 437.305
Cubesat XI-IV 07 Feb 19:09:31 19:14:07 29° 264° (W) 19:18:45 437.490
CUTE 1.7 + AOD 2 07 Feb 19:14:00 19:16:34 16° 66° (ENE) 19:19:08 437.475
HO-68 07 Feb 19:24:54 19:31:30 42° 66° (ENE) 19:38:10 435.675
SEEDS 07 Feb 19:25:01 19:27:32 16° 66° (ENE) 19:30:03 437.485
AO-85 07 Feb 19:38:00 19:42:19 26° 47° (NE) 19:46:22 145.980
PCSat 07 Feb 19:38:13 19:40:58 14° 43° (NE) 19:43:42 145.827
PRISM 07 Feb 19:39:54 19:42:07 14° 93° (E) 19:44:20 437.425
STRAND 1 07 Feb 19:45:43 19:50:50 61° 101° (ESE) 19:55:56 437.568
AAUSAT CUBESAT 2 07 Feb 19:46:35 19:49:11 16° 67° (ENE) 19:51:48 437.432
CINEMA 3 07 Feb 19:48:19 19:52:33 35° 72° (ENE) 19:56:39 145.822/145.860
RS-15 07 Feb 19:52:19 20:03:01 34° 38° (NE) 20:13:51 29.354- 29.394
Cosmos 2499 07 Feb 19:55:31 19:58:03 11° 58° (ENE) 20:00:32 435.465 / 435.565
CANX-2 07 Feb 19:56:48 20:00:54 55° 75° (ENE) 20:05:03 2200.000
DOVE 4 07 Feb 20:11:39 20:16:38 47° 261° (W) 20:21:26 437.250
CUBEBUG 2 07 Feb 20:13:26 20:16:46 22° 69° (ENE) 20:20:04 437.445
GOMX 1 07 Feb 20:18:31 20:22:50 24° 266° (W) 20:27:05 467.674
UWE-3 07 Feb 20:20:01 20:22:59 18° 68° (ENE) 20:25:54 435.000/436.395/437.385
Oscar 11 07 Feb 20:30:32 20:33:51 22° 68° (ENE) 20:37:10 145.826/435.025
GONETS M04 07 Feb 20:37:37 20:46:17 58° 79° (ENE) 20:54:56
AIST 2 07 Feb 20:40:30 20:44:31 47° 304° (NW) 20:48:34 435.215
CUTE 1.7 + AOD 2 07 Feb 20:48:07 20:52:04 40° 262° (W) 20:56:03 437.475
COMPASS 1 07 Feb 20:49:05 20:53:12 73° 259° (W) 20:57:22 437.405
SEEDS 07 Feb 20:58:58 21:02:54 40° 262° (W) 21:06:51 437.485
HO-68 07 Feb 21:12:48 21:19:13 35° 263° (W) 21:25:43 435.675
PRISM 07 Feb 21:13:41 21:17:39 43° 288° (WNW) 21:21:35 437.425
AO-85 07 Feb 21:18:16 21:23:00 41° 247° (WSW) 21:27:20 145.980
ZACube-1 07 Feb 21:18:25 21:22:36 58° 75° (ENE) 21:26:43 437.345
DELFI C3 07 Feb 21:19:01 21:22:42 39° 73° (ENE) 21:26:26 145.870
PCSat 07 Feb 21:19:44 21:25:12 84° 62° (ENE) 21:30:37 145.827
AAUSAT CUBESAT 2 07 Feb 21:20:33 21:24:22 37° 262° (W) 21:28:15 437.432
CINEMA 3 07 Feb 21:26:10 21:29:44 21° 265° (W) 21:33:12 145.822/145.860
STRAND 1 07 Feb 21:26:24 21:29:28 16° 297° (WNW) 21:32:32 437.568
FUNcube-1 07 Feb 21:28:46 21:32:59 75° 76° (ENE) 21:37:09 145.935
AIST 1 07 Feb 21:30:22 21:32:08 12° 70° (ENE) 21:33:53
CANX-2 07 Feb 21:36:04 21:37:06 11° 270° (W) 21:38:08 2200.000
Cosmos 2499 07 Feb 21:44:39 21:53:06 67° 80° (E) 22:00:50 435.465 / 435.565
CUBEBUG 2 07 Feb 21:49:25 21:53:15 29° 263° (W) 21:57:01 437.445
UWE-3 07 Feb 21:55:16 21:59:12 34° 262° (W) 22:03:05 435.000/436.395/437.385
HUMSAT D 07 Feb 21:58:38 22:02:33 46° 74° (ENE) 22:06:29 437.325/437.525
50 SAT 07 Feb 22:04:31 22:04:51 10° 65° (ENE) 22:05:10 437.505
RS-15 07 Feb 22:04:42 22:16:55 82° 243° (WSW) 22:29:15 29.354- 29.394
Oscar 11 07 Feb 22:06:04 22:09:48 29° 263° (W) 22:13:34 145.826/435.025
ANTELSAT 07 Feb 22:06:55 22:09:14 14° 93° (E) 22:11:34 437.575/2403.000
UKube-1 07 Feb 22:08:26 22:09:47 11° 63° (ENE) 22:11:07 .
CUBEBUG 1 07 Feb 22:09:37 22:10:11 10° 62° (ENE) 22:10:45 437.445
TIGRISAT 07 Feb 22:14:18 22:17:02 16° 93° (E) 22:19:48 435.000
DX 1 07 Feb 22:14:34 22:17:16 16° 65° (ENE) 22:19:58 434.975-435.025
GONETS M04 07 Feb 22:35:23 22:42:29 29° 277° (W) 22:49:38
ISS 07 Feb 22:55:29 22:58:11 23° 28° (NNE) 23:00:53 145.825
DELFI C3 07 Feb 22:55:46 22:57:48 14° 268° (W) 22:59:51 145.870
UNISAT 6 07 Feb 22:56:49 23:01:04 53° 100° (E) 23:05:22 437.425
VELOX 1 07 Feb 22:58:42 23:02:56 44° 72° (ENE) 23:07:11 145.980
ZACube-1 07 Feb 22:58:48 22:59:13 10° 269° (W) 22:59:39 437.345
AIST 1 07 Feb 23:05:50 23:10:04 51° 267° (W) 23:14:15
PCSat 07 Feb 23:06:11 23:07:47 11° 258° (WSW) 23:09:23 145.827
AISAT 07 Feb 23:14:41 23:19:08 71° 75° (ENE) 23:23:36 437.250
ESTCUBE 1 07 Feb 23:26:56 23:31:27 80° 257° (WSW) 23:36:01 437.505/2401.250
50 SAT 07 Feb 23:34:49 23:38:24 50° 260° (W) 23:42:02 437.505
HUMSAT D 07 Feb 23:36:49 23:38:27 12° 268° (W) 23:40:04 437.325/437.525
POLYITAN 1 07 Feb 23:38:30 23:42:22 35° 98° (E) 23:46:13 437.675
Cosmos 2499 07 Feb 23:39:13 23:45:17 23° 280° (W) 23:51:03 435.465 / 435.565
QB50P2 07 Feb 23:39:14 23:43:10 37° 98° (E) 23:47:04 145.880/145.840
UKube-1 07 Feb 23:40:58 23:45:16 65° 258° (WSW) 23:49:35 .
CUBEBUG 1 07 Feb 23:41:24 23:45:49 75° 257° (WSW) 23:50:17 437.445
ANTELSAT 07 Feb 23:42:01 23:46:10 46° 287° (WNW) 23:50:22 437.575/2403.000
DX 1 07 Feb 23:48:54 23:53:04 44° 260° (W) 23:57:18 434.975-435.025
TIGRISAT 07 Feb 23:49:51 23:53:52 39° 288° (WNW) 23:57:57 435.000
SPROUT 07 Feb 23:54:27 23:58:37 51° 74° (ENE) 00:02:48 437.525
BUGSAT 1 07 Feb 23:55:10 23:58:31 24° 96° (E) 00:01:48 437.445
POPSAT HIP 1 08 Feb 00:09:25 00:13:38 83° 104° (ESE) 00:17:49 437.405
TISAT 1 08 Feb 00:13:04 00:16:46 30° 70° (ENE) 00:20:28 437.305
NANOSAT C BR1 08 Feb 00:15:38 00:19:51 85° 281° (W) 00:24:02 145.865
DUCHIFAT 1 08 Feb 00:18:08 00:22:20 84° 284° (WNW) 00:26:31 145.980
RS-15 08 Feb 00:19:57 00:27:32 19° 262° (W) 00:35:10 29.354- 29.394
QB50P1 08 Feb 00:22:20 00:26:31 68° 285° (WNW) 00:30:41 145.935-145.965
ISS 08 Feb 00:31:41 00:34:43 39° 225° (SW) 00:37:46 145.825
UNISAT 6 08 Feb 00:35:18 00:37:21 13° 295° (WNW) 00:39:24 437.425
VELOX 1 08 Feb 00:36:54 00:39:37 16° 267° (W) 00:42:19 145.980
SWISSCUBE 08 Feb 00:43:58 00:46:34 15° 63° (ENE) 00:49:12 437.505
CUSAT 1 08 Feb 00:50:52 00:54:20 14° 78° (ENE) 00:57:52 437.405
POLYITAN 1 08 Feb 01:15:05 01:17:55 18° 293° (WNW) 01:20:44 437.675
QB50P2 08 Feb 01:15:57 01:18:41 17° 293° (WNW) 01:21:24 145.880/145.840
ITUPSAT 1 08 Feb 01:17:50 01:21:54 29° 68° (ENE) 01:26:00 437.325
PHONESAT 2.4 08 Feb 01:26:31 01:28:48 17° 147° (SSE) 01:31:04 2401.200-2431.200
BEESAT 08 Feb 01:27:31 01:31:52 37° 70° (ENE) 01:36:14 436.000
Cosmos 2491 08 Feb 01:28:45 01:34:17 18° 64° (ENE) 01:39:47 435.465 / 435.565
Oscar 19 08 Feb 01:29:39 01:34:07 29° 96° (E) 01:38:33 437.125/150
BUGSAT 1 08 Feb 01:30:36 01:33:47 23° 291° (WNW) 01:36:57 437.445
SPROUT 08 Feb 01:33:03 01:34:53 12° 269° (W) 01:36:42 437.525
JAS-2 08 Feb 01:36:17 01:40:41 23° 92° (E) 01:44:50 435.910
Gurwin Techsat 1B 08 Feb 01:43:31 01:46:23 15° 91° (E) 01:49:14 435.225
TISAT 1 08 Feb 01:49:15 01:52:26 20° 265° (W) 01:55:38 437.305
KKS-1 08 Feb 02:09:25 02:11:30 13° 64° (ENE) 02:13:37 437.445
SWISSCUBE 08 Feb 02:19:12 02:23:52 57° 259° (W) 02:28:35 437.505
YUBILEINY 08 Feb 02:20:31 02:24:55 15° 76° (ENE) 02:29:20 435.215
CUSAT 1 08 Feb 02:27:33 02:35:15 74° 96° (E) 02:43:23 437.405
ITAMSAT 1 08 Feb 02:33:44 02:37:52 23° 95° (E) 02:41:57 435.822/435.867
DANDE 08 Feb 02:42:17 02:49:27 57° 92° (E) 02:57:40 436.750
ITUPSAT 1 08 Feb 02:55:38 02:59:40 27° 264° (W) 03:03:45 437.325
PHONESAT 2.4 08 Feb 03:02:28 03:05:45 76° 163° (SSE) 03:09:02 2401.200-2431.200
BEESAT 3 08 Feb 03:04:41 03:08:35 55° 56° (ENE) 03:12:27 437.485
BEESAT 08 Feb 03:06:09 03:09:44 21° 266° (W) 03:13:21 436.000
Oscar 19 08 Feb 03:08:56 03:13:22 30° 292° (WNW) 03:17:47 437.125/150
JAS-2 08 Feb 03:20:42 03:26:00 40° 292° (WNW) 03:30:54 435.910
MOZHAYETS 4 08 Feb 03:21:15 03:25:08 28° 69° (ENE) 03:29:02
Gurwin Techsat 1B 08 Feb 03:21:29 03:26:45 64° 286° (WNW) 03:31:59 435.225
Cosmos 2491 08 Feb 03:23:31 03:32:19 89° 265° (W) 03:41:07 435.465 / 435.565
BEESAT 2 08 Feb 03:24:52 03:28:50 58° 57° (ENE) 03:32:44 435.950
STARS 08 Feb 03:32:05 03:36:23 56° 74° (ENE) 03:40:42 437.465
KKS-1 08 Feb 03:43:11 03:47:35 57° 259° (W) 03:52:00 437.445
YUBILEINY 08 Feb 04:11:30 04:20:16 85° 95° (E) 04:29:09 435.215
CUSAT 1 08 Feb 04:12:03 04:18:15 25° 293° (WNW) 04:24:37 437.405
ITAMSAT 1 08 Feb 04:12:34 04:17:25 40° 290° (WNW) 04:22:17 435.822/435.867
AO-7 08 Feb 04:22:04 04:30:18 59° 103° (ESE) 04:38:26 29.400- 29.500
DANDE 08 Feb 04:26:15 04:32:52 31° 292° (WNW) 04:40:11 436.750
M-CUBED/EXP-1 PRIME 08 Feb 04:29:11 04:32:07 27° 103° (ESE) 04:35:11 437.505
PHONESAT 2.4 08 Feb 04:39:53 04:43:08 56° 359° (N) 04:46:21 2401.200-2431.200
AUBIESAT-1 08 Feb 04:40:49 04:43:56 31° 104° (ESE) 04:47:10 437.475
BEESAT 3 08 Feb 04:44:46 04:45:50 11° 252° (WSW) 04:46:54 437.485
SO-50 08 Feb 04:51:35 04:54:52 18° 109° (ESE) 04:58:11 436.795
MOZHAYETS 4 08 Feb 04:58:30 05:02:14 25° 265° (W) 05:06:02
HORYU 2 08 Feb 05:02:45 05:07:09 61° 101° (E) 05:11:33 437.375
AIST 2 08 Feb 05:03:09 05:07:16 67° 58° (ENE) 05:11:20 435.215
BEESAT 2 08 Feb 05:05:27 05:06:10 10° 253° (WSW) 05:06:55 435.950
Cosmos 2504 08 Feb 05:11:18 05:19:13 46° 88° (E) 05:27:30 435.465 / 435.565
STARS 08 Feb 05:11:23 05:13:04 12° 268° (W) 05:14:46 437.465
Cosmos 2491 08 Feb 05:23:05 05:27:49 16° 283° (WNW) 05:32:35 435.465 / 435.565
CUBESAT XI-V 08 Feb 05:32:10 05:36:49 71° 75° (ENE) 05:41:32 437.345
CUTE-I 08 Feb 05:38:26 05:38:57 10° 89° (E) 05:39:29 437.470
Cubesat XI-IV 08 Feb 05:49:23 05:52:12 14° 91° (E) 05:54:59 437.490
M-CUBED/EXP-1 PRIME 08 Feb 06:04:34 06:06:36 15° 296° (WNW) 06:08:42 437.505
LilacSat-2 08 Feb 06:06:25 06:08:20 13° 93° (E) 06:10:14 437.200
YUBILEINY 08 Feb 06:12:21 06:18:12 19° 295° (WNW) 06:24:06 435.215
AO-7 08 Feb 06:15:35 06:22:34 31° 301° (WNW) 06:29:32 29.400- 29.500
AUBIESAT-1 08 Feb 06:16:28 06:18:18 14° 297° (WNW) 06:20:10 437.475
PHONESAT 2.4 08 Feb 06:17:15 06:20:33 89° 175° (S) 06:23:48 2401.200-2431.200
SO-50 08 Feb 06:30:10 06:34:57 52° 305° (NW) 06:39:48 436.795
HORYU 2 08 Feb 06:41:23 06:43:12 12° 297° (WNW) 06:45:00 437.375
GOMX 1 08 Feb 06:46:32 06:47:14 10° 89° (E) 06:47:55 467.674
STRAND 1 08 Feb 07:00:01 07:05:05 75° 75° (ENE) 07:10:13 437.568
Cosmos 2504 08 Feb 07:04:55 07:12:41 38° 287° (WNW) 07:20:47 435.465 / 435.565
BRITE-PL 08 Feb 07:05:16 07:09:48 40° 97° (E) 07:13:58 437.365/2234.400
CUBESAT XI-V 08 Feb 07:14:02 07:14:41 10° 271° (W) 07:15:19 437.345
CUTE-I 08 Feb 07:14:13 07:19:38 87° 284° (WNW) 07:25:00 437.470
